STARLINK-4319, 53084

Orbit data source: Space-Track

STARLINK-4319, 53084 is a payload satellite owned by SpaceX/Seattle (US) in SSO that was launched on Mon, 11 Jul 2022 UTC via an FALCON 9 launch vehicle from the Air Force Western Test Range (AFWTR). Payload-class satellites include a variety of spacecraft equipped with specific instruments for various scientific and technological missions. These include communications satellites like Starlink; space stations such as the ISS; scientific satellites like the Hubble; Earth observation satellites from companies like Planet Labs, Umbra, and HawkEye 360; GPS; miniature CubeSats for education and research; and military/defense satellites.

Loading next visibility...
Identifier
53084, 2022-077AT
Orbit
SSO
Country
Flag of USUS
Related business
Manufacturer
SpaceX/Seattle
Mission
Operational Commercial Communications
Bus & Motor
STARLINK, Unknown motor
Mass
297 kg wet, ~275 kg dry
Launch date (UTC)
2022-07-11 (3 years ago)
Launch vehicle
FALCON 9
Launch site
Air Force Western Test Range (AFWTR)
Object type
Payload
Rocket body
Debris
Shape & HBR
Box + 1 Pan, 10.1 m
Radar Cross Section
13.562 m², Large (>1 m²)

Expand to show TLE details & history
Last TLE update: 16 hours ago

TLE from 16 hours ago
0 STARLINK-4319
1 53084U 22077AT  25348.95031933 -.00002834  00000-0 -19239-3 0  9999
2 53084  97.6022 167.6776 0003007  82.7573 277.3995 15.05619936188239
Epoch: 2025-12-14T22:48Z
TLE epoch observation values (Epoch: 2025-12-14T22:48:27.590Z)
Latitude
-0.00005°
Longitude
101.70676°
Altitude
552.401 km
Speed
7.586 km/s
True Right ascension
11h 10m 42s
True Declination
0° 00' 00"
Sunlit
Object was in daylight at epoch
Visualization orbit readout
Latitude
Unknown
Longitude
Unknown
Altitude
Unknown
Speed
Unknown
Apparent Right ascension
Unknown
Apparent Declination
Unknown
Sunlit
N/A
Visualization observer readout
Local Sidereal Time
13:20:31
Azimuth
Unknown
Elevation
Unknown
Doppler factor
Unknown
Orbital elements
Apogee altitude
548.679 km
Perigee altitude
544.515 km
Semi-major axis
6,924.734 km
Eccentricity
0.0003
Inclination
97.6022°
RAAN
167.6776°
Arg. of periapsis
82.7573°
True anomaly
277.36533°
Mean anomaly
277.3995°
Eccentric anomaly
277.38241°
Mean motion
3.7665 °/min
Orbital period
95.58 mins
BSTAR
-0.00019239
Loading maneuver chart data...
Computing Atmospheric mass density...
Loading historical data...
Loading historical data...
Loading historical data...
Loading historical data...
Loading historical data...
Loading historical data...
Loading historical data...

Documentation

Showing up to 5 results
|